| time (UTC) | temp F | wind direction | speed MPH | gust MPH | rain 1hr in | rain 24hr in | rain mn in | humidity % | barometer mb |
| 20260504141037 | 35 | 282 | 9.0 | 24.0 | 0.00 | 0.20 | 0.03 | 98 | 871.9 |
| 20260504081021 | 39 | 301 | 21.0 | 31.0 | 0.00 | 0.43 | 0.03 | 99 | 866.8 |
| 20260504045018 | 43 | 314 | 8.0 | 20.0 | 0.00 | 2.05 | 0.02 | 99 | 865.7 |
| 20260504044024 | 44 | 310 | 10.0 | 22.0 | 0.00 | 2.05 | 0.02 | 99 | 865.7 |
| 20260504043045 | 44 | 359 | 6.0 | 14.0 | 0.00 | 2.05 | 0.02 | 99 | 865.3 |
| 20260504042016 | 44 | 309 | 5.0 | 14.0 | 0.00 | 2.05 | 0.02 | 99 | 865.4 |
| 20260504041048 | 44 | 311 | 5.0 | 15.0 | 0.00 | 2.05 | 0.02 | 99 | 865.6 |
| 20260504040024 | 44 | 322 | 4.0 | 10.0 | 0.00 | 2.05 | 0.02 | 99 | 865.6 |
| 20260504035025 | 45 | 305 | 4.0 | 9.0 | 0.00 | 2.40 | 0.02 | 99 | 865.3 |
| 20260504034027 | 45 | 318 | 4.0 | 8.0 | 0.00 | 2.40 | 0.02 | 99 | 865.6 |
| 20260504033050 | 45 | 359 | 5.0 | 13.0 | 0.00 | 2.40 | 0.02 | 99 | 865.3 |
| 20260504032051 | 45 | 359 | 7.0 | 14.0 | 0.00 | 2.40 | 0.02 | 99 | 865.4 |
| 20260504031030 | 46 | 293 | 8.0 | 12.0 | 0.00 | 2.40 | 0.02 | 99 | 865.3 |
| 20260504030050 | 46 | 319 | 4.0 | 12.0 | 0.00 | 2.40 | 0.02 | 99 | 865.3 |
| 20260504025031 | 47 | 359 | 7.0 | 14.0 | 0.00 | 2.60 | 0.02 | 99 | 865.3 |
| 20260504024034 | 46 | 359 | 8.0 | 16.0 | 0.00 | 2.60 | 0.02 | 99 | 865.2 |
| 20260504023026 | 47 | 277 | 10.0 | 24.0 | 0.00 | 2.60 | 0.02 | 99 | 865.2 |
| 20260504022033 | 48 | 277 | 8.0 | 18.0 | 0.00 | 2.60 | 0.02 | 99 | 865.1 |
| 20260504021037 | 48 | 295 | 10.0 | 17.0 | 0.00 | 2.60 | 0.02 | 99 | 865.3 |
| 20260504020024 | 48 | 293 | 9.0 | 16.0 | 0.00 | 2.60 | 0.02 | 99 | 865.4 |
| 20260504015049 | 48 | 359 | 11.0 | 20.0 | 0.00 | 2.60 | 0.02 | 99 | 865.4 |
| 20260504014052 | 48 | 274 | 11.0 | 19.0 | 0.00 | 2.60 | 0.02 | 99 | 865.1 |
| 20260504013037 | 48 | 297 | 8.0 | 18.0 | 0.00 | 2.60 | 0.02 | 99 | 865.4 |
| 20260504012042 | 48 | 311 | 6.0 | 15.0 | 0.00 | 2.60 | 0.02 | 99 | 865.4 |
| 20260504011017 | 48 | 359 | 9.0 | 22.0 | 0.00 | 2.60 | 0.02 | 99 | 865.4 |
| 20260504010017 | 48 | 359 | 9.0 | 16.0 | 0.00 | 2.60 | 0.02 | 99 | 865.4 |
| 20260504005041 | 47 | 325 | 7.0 | 13.0 | 0.00 | 2.60 | 0.02 | 99 | 865.2 |
| 20260504004039 | 47 | 295 | 6.0 | 12.0 | 0.00 | 2.60 | 0.02 | 99 | 865.4 |
| 20260504003023 | 47 | 303 | 5.0 | 9.0 | 0.00 | 2.60 | 0.02 | 99 | 865.4 |
| 20260504002028 | 47 | 301 | 5.0 | 10.0 | 0.00 | 2.60 | 0.02 | 99 | 865.5 |
| 20260504001032 | 47 | 306 | 6.0 | 11.0 | 0.00 | 2.60 | 0.02 | 99 | 865.5 |
| 20260504000030 | 48 | 359 | 4.0 | 9.0 | 0.00 | 2.60 | 0.02 | 99 | 865.5 |
| 20260503235019 | 48 | 291 | 5.0 | 9.0 | 0.00 | 2.60 | 0.02 | 99 | 865.4 |
| 20260503234025 | 48 | 318 | 6.0 | 11.0 | 0.00 | 2.60 | 0.02 | 99 | 865.5 |
| 20260503233046 | 48 | 307 | 4.0 | 9.0 | 0.00 | 2.60 | 0.02 | 99 | 865.4 |
| 20260503232031 | 48 | 293 | 4.0 | 11.0 | 0.00 | 2.60 | 0.02 | 99 | 865.5 |
| 20260503231027 | 49 | 359 | 5.0 | 11.0 | 0.00 | 2.60 | 0.02 | 99 | 865.2 |
| 20260503230033 | 49 | 283 | 5.0 | 11.0 | 0.00 | 2.60 | 0.02 | 99 | 865.2 |
| 20260503225016 | 49 | 289 | 5.0 | 12.0 | 0.00 | 2.60 | 0.02 | 99 | 865.2 |
| 20260503224037 | 49 | 359 | 7.0 | 13.0 | 0.00 | 2.60 | 0.02 | 99 | 865.1 |
| 20260503223017 | 49 | 359 | 7.0 | 15.0 | 0.00 | 2.60 | 0.02 | 99 | 864.9 |
| 20260503222019 | 49 | 359 | 8.0 | 14.0 | 0.00 | 2.60 | 0.02 | 99 | 864.8 |
| 20260503221024 | 49 | 291 | 7.0 | 13.0 | 0.00 | 2.60 | 0.02 | 99 | 864.6 |
| 20260503220020 | 49 | 300 | 8.0 | 13.0 | 0.00 | 2.60 | 0.02 | 99 | 864.5 |
| 20260503215027 | 49 | 359 | 7.0 | 12.0 | 0.00 | 2.60 | 0.02 | 99 | 864.3 |
| 20260503214031 | 50 | 325 | 6.0 | 17.0 | 0.00 | 2.60 | 0.02 | 99 | 864.4 |
| 20260503213035 | 50 | 285 | 11.0 | 18.0 | 0.00 | 2.60 | 0.02 | 99 | 864.4 |
| 20260503212036 | 50 | 289 | 9.0 | 17.0 | 0.00 | 2.60 | 0.02 | 99 | 864.3 |
| 20260503211035 | 50 | 305 | 8.0 | 17.0 | 0.00 | 2.60 | 0.02 | 99 | 864.2 |
| 20260503210037 | 50 | 306 | 8.0 | 15.0 | 0.00 | 2.60 | 0.02 | 99 | 864.1 |
| 20260503205041 | 50 | 323 | 9.0 | 16.0 | 0.00 | 2.60 | 0.02 | 99 | 864.1 |
| 20260503204021 | 51 | 291 | 13.0 | 21.0 | 0.00 | 2.60 | 0.02 | 99 | 863.9 |
| 20260503203014 | 51 | 302 | 9.0 | 16.0 | 0.00 | 2.60 | 0.02 | 99 | 863.9 |
| 20260503202044 | 51 | 359 | 9.0 | 18.0 | 0.00 | 2.60 | 0.02 | 99 | 863.6 |
| 20260503201019 | 51 | 359 | 11.0 | 19.0 | 0.00 | 2.60 | 0.02 | 99 | 863.7 |
| 20260503200025 | 51 | 359 | 11.0 | 18.0 | 0.00 | 2.60 | 0.02 | 99 | 863.6 |
| 20260503195032 | 51 | 297 | 10.0 | 18.0 | 0.00 | 2.60 | 0.02 | 99 | 863.6 |
| 20260503194033 | 52 | 293 | 9.0 | 21.0 | 0.00 | 2.60 | 0.02 | 99 | 863.5 |
| 20260503193015 | 52 | 332 | 11.0 | 19.0 | 0.04 | 2.60 | 0.02 | 99 | 863.5 |
| 20260503192022 | 52 | 283 | 10.0 | 18.0 | 0.04 | 2.60 | 0.02 | 99 | 863.3 |
| 20260503191029 | 52 | 301 | 9.0 | 16.0 | 0.04 | 2.60 | 0.02 | 99 | 863.0 |
| 20260503190027 | 52 | 315 | 10.0 | 20.0 | 0.04 | 2.60 | 0.02 | 99 | 863.2 |
| 20260503185027 | 52 | 359 | 8.0 | 18.0 | 0.04 | 2.60 | 0.02 | 99 | 863.2 |
| 20260503184028 | 53 | 320 | 8.0 | 16.0 | 0.04 | 2.60 | 0.02 | 99 | 863.1 |
| 20260503183032 | 54 | 272 | 9.0 | 18.0 | 0.00 | 2.56 | 0.01 | 99 | 863.2 |
| 20260503182026 | 55 | 359 | 10.0 | 19.0 | 0.00 | 2.56 | 0.01 | 99 | 862.7 |
| 20260503181024 | 55 | 298 | 10.0 | 18.0 | 0.00 | 2.56 | 0.01 | 99 | 862.6 |
| 20260503180031 | 56 | 290 | 10.0 | 18.0 | 0.00 | 2.56 | 0.01 | 99 | 862.4 |
| 20260503175015 | 56 | 359 | 13.0 | 23.0 | 0.00 | 2.56 | 0.01 | 99 | 862.2 |
| 20260503174042 | 56 | 301 | 15.0 | 23.0 | 0.00 | 2.56 | 0.01 | 99 | 862.1 |
| 20260503173019 | 56 | 312 | 16.0 | 24.0 | 0.00 | 2.56 | 0.01 | 99 | 862.2 |
| 20260503172019 | 56 | 302 | 15.0 | 23.0 | 0.00 | 2.56 | 0.01 | 99 | 862.5 |
| 20260503171024 | 57 | 300 | 12.0 | 20.0 | 0.00 | 2.56 | 0.01 | 99 | 862.8 |